TimePST,TemperatureF,Dew PointF,Humidity,Sea Level PressureIn,VisibilityMPH,Wind Direction,Wind SpeedMPH,Gust SpeedMPH,PrecipitationIn,Events,Conditions,WindDirDegrees,DateUTC
12:53 AM,48.0,39.0,71,30.14,10.0,SW,3.5,-,N/A,,Clear,220,2013-12-13 08:53:00
1:53 AM,46.0,36.0,68,30.15,10.0,Calm,Calm,-,N/A,,Clear,0,2013-12-13 09:53:00
2:53 AM,46.0,37.0,71,30.17,10.0,Calm,Calm,-,N/A,,Clear,0,2013-12-13 10:53:00
3:53 AM,44.1,35.1,71,30.16,10.0,Calm,Calm,-,N/A,,Clear,0,2013-12-13 11:53:00
4:53 AM,43.0,35.1,74,30.14,10.0,Calm,Calm,-,N/A,,Clear,0,2013-12-13 12:53:00
5:53 AM,42.1,32.0,67,30.17,10.0,Calm,Calm,-,N/A,,Clear,0,2013-12-13 13:53:00
6:53 AM,41.0,33.1,73,30.17,10.0,Calm,Calm,-,N/A,,Clear,0,2013-12-13 14:53:00
7:53 AM,46.0,32.0,58,30.18,10.0,Calm,Calm,-,N/A,,Clear,0,2013-12-13 15:53:00
8:53 AM,50.0,35.1,57,30.19,10.0,Calm,Calm,-,N/A,,Clear,0,2013-12-13 16:53:00
9:53 AM,57.0,36.0,45,30.20,10.0,Calm,Calm,-,N/A,,Clear,0,2013-12-13 17:53:00
10:53 AM,60.1,39.0,46,30.19,9.0,Variable,3.5,-,N/A,,Clear,0,2013-12-13 18:53:00
11:53 AM,62.1,37.0,39,30.16,10.0,Calm,Calm,-,N/A,,Clear,0,2013-12-13 19:53:00
12:53 PM,64.0,33.1,31,30.13,10.0,Calm,Calm,-,N/A,,Clear,0,2013-12-13 20:53:00
1:53 PM,66.9,30.0,25,30.10,10.0,Calm,Calm,-,N/A,,Clear,0,2013-12-13 21:53:00
2:53 PM,68.0,28.9,23,30.09,10.0,Calm,Calm,-,N/A,,Clear,0,2013-12-13 22:53:00
3:53 PM,64.9,42.1,43,30.11,10.0,South,9.2,-,N/A,,Clear,180,2013-12-13 23:53:00
4:53 PM,61.0,43.0,52,30.13,8.0,South,4.6,-,N/A,,Clear,180,2013-12-14 00:53:00
5:53 PM,57.9,42.1,56,30.14,10.0,Calm,Calm,-,N/A,,Clear,0,2013-12-14 01:53:00
6:53 PM,57.0,39.9,53,30.16,9.0,Calm,Calm,-,N/A,,Clear,0,2013-12-14 02:53:00
7:53 PM,54.0,42.1,64,30.17,8.0,ESE,4.6,-,N/A,,Clear,110,2013-12-14 03:53:00
8:53 PM,55.0,42.1,62,30.19,9.0,Calm,Calm,-,N/A,,Clear,0,2013-12-14 04:53:00
9:53 PM,51.1,35.1,54,30.18,10.0,NNW,4.6,-,N/A,,Clear,330,2013-12-14 05:53:00
10:53 PM,50.0,37.0,61,30.19,8.0,West,4.6,-,N/A,,Clear,260,2013-12-14 06:53:00
11:53 PM,48.0,37.0,66,30.18,8.0,North,4.6,-,N/A,,Clear,350,2013-12-14 07:53:00